[[{"header":{"parameterUnit":"m.s-1","parameterCategory":1,"la1":30.2991,"la2":30.254,"lo1":-89.0895,"lo2":-89.0444,"dy":0.0017,"dx":0.0017,"nx":28,"ny":28,"refTime":"2023-08-29T21:00:00:Z","depth":0,"parameterNumber":2,"parameterNumberName":"U-component_of_WINDS"},"data":[0,0,0,0,0,0,0,0,0,0,0,0,0,0,0,0,0,0,0,0,0,0,0,0,0,0,0,0,0,0,0,0,0,0,0,0,0,0,0,0,0,0,0,0,0,0,0,0,0,0,0,0,0,0,0,0,0,0,0.3941,0.3941,0,0.3917,0.3917,0.3917,0.3902,0.3902,0.3902,0.3902,0.3877,0.3876,0.3875,0,0,0,0,0,0,0,0,0,0,0,0,0,0.3973,0.3973,0.3941,0.3941,0.3941,0.3918,0.3917,0.3917,0.3902,0.3902,0.3902,0.3902,0.3877,0.3876,0.3875,0,0,0,0,0,0,0,0,0,0,0,0,0,0.3955,0.3973,0.3941,0.3931,0.3929,0.3918,0.3917,0.3917,0.3902,0.3902,0.3902,0.3902,0.3877,0.3876,0.3875,0.3872,0,0,0.3872,0.3872,0,0,0,0,0,0,0,0,0.3957,0.3954,0.3932,0.3931,0.393,0.3913,0.3919,0.3902,0.3902,0.3913,0.3902,0.3902,0.3889,0.3887,0.3882,0.3871,0.387,0.3872,0.3872,0.3871,0.3871,0,0,0,0,0,0,0,0.3958,0.3955,0.3932,0.3932,0.3931,0.3927,0.3924,0.3916,0.3901,0.3912,0.3911,0.3908,0.3888,0.3883,0.3882,0.3869,0.3872,0.3872,0.3871,0.3871,0.3854,0.3854,0,0,0,0,0,0,0.3961,0.3956,0.3932,0.3931,0.3943,0.3926,0.3923,0.3918,0.3902,0.3899,0.3908,0.3907,0.3885,0.3883,0.3881,0.3876,0.3871,0.3871,0.387,0.3854,0.3854,0.3854,0,0,0,0,0,0,0.3962,0.3959,0.3933,0.3943,0.394,0.3926,0.392,0.3918,0.3913,0.3899,0.3896,0.3906,0.3885,0.3882,0.3874,0.3875,0.387,0.3869,0.3854,0.3854,0.3854,0.3867,0,0,0,0,0,0,0.3963,0.3959,0.3958,0.3944,0.3939,0.3928,0.392,0.3918,0.3912,0.3911,0.3896,0.3894,0.3885,0.3876,0.3874,0.3874,0.3869,0.3854,0.3854,0.3854,0.3866,0.3868,0.3868,0,0,0,0,0,0.3964,0.3962,0.3958,0.3955,0.3937,0.3928,0.3925,0.3915,0.3912,0.3911,0.3901,0.3894,0.3876,0.3875,0.3872,0.3873,0.3854,0.3854,0.3854,0.3866,0.3867,0.3868,0,0,0,0,0,0,0.3976,0.396,0.3955,0.3948,0.394,0.3925,0.3923,0.3917,0.3908,0.3907,0.3895,0.3892,0.3885,0.3878,0.3878,0.3869,0.3864,0.3864,0.3874,0.3875,0.3876,0.3878,0.3868,0,0,0,0,0,0.3978,0.3972,0.3958,0.3953,0.3949,0.3937,0.3932,0.3925,0.3915,0.3911,0.3902,0.3892,0.3884,0.3879,0.3871,0.3865,0.3862,0.3864,0.3865,0.3866,0.3866,0.3863,0.3864,0.3855,0.3855,0.3855,0,0,0.3982,0.3972,0.3969,0.3955,0.3948,0.3942,0.3934,0.3927,0.3922,0.391,0.3903,0.3895,0.3884,0.3878,0.3874,0.3871,0.3868,0.3866,0.3867,0.3867,0.3864,0.3864,0.3865,0.3855,0.3855,0.3855,0,0,0.3986,0.3978,0.3973,0.3966,0.3955,0.3947,0.3946,0.3933,0.3928,0.392,0.3911,0.3905,0.3891,0.3884,0.3878,0.3881,0.3874,0.3878,0.3884,0.3881,0.3882,0.3883,0.3884,0.3885,0.3878,0.3878,0.3878,0,0.3992,0.3982,0.3972,0.3966,0.3961,0.395,0.3946,0.3939,0.3926,0.3922,0.392,0.3903,0.3894,0.3887,0.3887,0.3883,0.3882,0.388,0.3883,0.3883,0.3884,0.3885,0.3885,0.3879,0.3879,0.3879,0.3879,0,0.399,0.3984,0.3982,0.397,0.3964,0.3959,0.3949,0.3944,0.3938,0.393,0.3923,0.3913,0.3903,0.39,0.3894,0.3892,0.389,0.3885,0.388,0.3885,0.3886,0.3887,0.388,0.388,0.388,0.3879,0,0,0.4,0.3984,0.3983,0.3978,0.3966,0.396,0.3955,0.3946,0.3943,0.3934,0.3929,0.3919,0.3914,0.3908,0.3901,0.3899,0.3902,0.3894,0.3893,0.3896,0.39,0.3904,0.3904,0.3898,0.3898,0.3898,0.3901,0,0.4003,0.3993,0.3984,0.3978,0.3972,0.3963,0.3958,0.395,0.3943,0.3937,0.3929,0.3922,0.3917,0.3913,0.3911,0.3902,0.3903,0.3902,0.3893,0.3893,0.3897,0.3905,0.3909,0.3912,0.3901,0.3901,0.3901,0,0.4004,0.3996,0.399,0.3979,0.3976,0.3972,0.3963,0.3958,0.3949,0.3944,0.3937,0.393,0.3924,0.392,0.3912,0.3912,0.3908,0.3903,0.3903,0.3902,0.3898,0.3904,0.3913,0.3914,0.3902,0.3902,0.3901,0,0.4012,0.4001,0.3995,0.3991,0.3978,0.3976,0.397,0.3961,0.3956,0.3948,0.3945,0.3937,0.3933,0.3926,0.3917,0.3915,0.391,0.3905,0.3906,0.3907,0.3906,0.3906,0.3915,0.3903,0.3903,0.3903,0.3903,0,0.4016,0.4012,0.3999,0.3996,0.3992,0.3982,0.3978,0.3972,0.3964,0.3959,0.395,0.3946,0.3934,0.3928,0.3921,0.3916,0.3914,0.391,0.3908,0.3911,0.3911,0.3908,0.3908,0.3903,0.3903,0.3903,0.3903,0,0.4025,0.4016,0.4009,0.3998,0.3995,0.3992,0.3982,0.3979,0.3972,0.3966,0.3964,0.3953,0.3947,0.3937,0.3927,0.3922,0.3918,0.3915,0.3921,0.392,0.3922,0.3922,0.3929,0.393,0.3918,0.3918,0.3918,0,0.4027,0.4024,0.4013,0.401,0.4004,0.3999,0.3994,0.3985,0.398,0.397,0.3968,0.3961,0.3954,0.3944,0.3935,0.3928,0.3924,0.3927,0.3923,0.3926,0.3925,0.3925,0.3925,0.3928,0.3928,0.3928,0.3929,0,0.4033,0.4029,0.4023,0.4016,0.4011,0.4005,0.3998,0.3996,0.3985,0.3981,0.3974,0.3969,0.396,0.3953,0.3944,0.3938,0.3932,0.393,0.393,0.3933,0.3937,0.3935,0.3924,0.393,0.393,0.393,0.393,0.393,0.4039,0.4037,0.4028,0.4022,0.4017,0.4011,0.4007,0.4,0.3995,0.3987,0.3981,0.3975,0.3967,0.3955,0.3949,0.3944,0.3942,0.3941,0.3941,0.3942,0.3943,0.3938,0.3943,0.3943,0.3943,0.3943,0.3943,0,0.4045,0.404,0.4034,0.4026,0.4021,0.4016,0.4009,0.4005,0.4,0.3993,0.3987,0.398,0.3974,0.3964,0.3957,0.3955,0.3952,0.3954,0.3954,0.3953,0.3945,0.3946,0.3956,0.3956,0.3956,0.3956,0.3956,0.3956,0.4048,0.4043,0.4039,0.4031,0.4026,0.402,0.4016,0.4011,0.4006,0.3998,0.3993,0.3987,0.398,0.3972,0.3966,0.3964,0.3962,0.3964,0.3961,0.3954,0.3953,0.3952,0.3953,0.3964,0.3964,0.3968,0.3968,0.3968]},{"header":{"parameterUnit":"m.s-1","parameterCategory":1,"la1":30.2991,"la2":30.254,"lo1":-89.0895,"lo2":-89.0444,"dy":0.0017,"dx":0.0017,"nx":28,"ny":28,"refTime":"2023-08-29T21:00:00:Z","depth":0,"parameterNumber":3,"parameterNumberName":"V-component_of_WINDS"},"data":[0,0,0,0,0,0,0,0,0,0,0,0,0,0,0,0,0,0,0,0,0,0,0,0,0,0,0,0,0,0,0,0,0,0,0,0,0,0,0,0,0,0,0,0,0,0,0,0,0,0,0,0,0,0,0,0,0,0,-5.7439,-5.744,0,-5.7464,-5.7464,-5.7464,-5.7419,-5.7418,-5.7416,-5.7415,-5.7436,-5.7437,-5.7439,0,0,0,0,0,0,0,0,0,0,0,0,0,-5.7352,-5.7354,-5.7439,-5.744,-5.744,-5.7464,-5.7464,-5.7464,-5.7419,-5.7418,-5.7416,-5.7414,-5.7435,-5.7437,-5.7439,0,0,0,0,0,0,0,0,0,0,0,0,0,-5.7384,-5.7354,-5.7439,-5.7421,-5.7419,-5.7464,-5.7464,-5.7464,-5.742,-5.7418,-5.7415,-5.7413,-5.7434,-5.7437,-5.744,-5.7502,0,0,-5.7449,-5.745,0,0,0,0,0,0,0,0,-5.7382,-5.7387,-5.7423,-5.7422,-5.742,-5.7436,-5.7441,-5.7477,-5.742,-5.7419,-5.7415,-5.7412,-5.7437,-5.744,-5.7449,-5.7503,-5.7504,-5.7449,-5.7451,-5.7452,-5.7453,0,0,0,0,0,0,0,-5.738,-5.7386,-5.7449,-5.7424,-5.7422,-5.741,-5.7412,-5.7447,-5.744,-5.7419,-5.7416,-5.742,-5.7436,-5.7446,-5.7449,-5.7505,-5.7449,-5.7451,-5.7453,-5.7454,-5.7613,-5.7616,0,0,0,0,0,0,-5.7381,-5.7385,-5.7448,-5.745,-5.7396,-5.7414,-5.7416,-5.7433,-5.744,-5.7439,-5.7422,-5.7418,-5.7443,-5.7446,-5.745,-5.7525,-5.7452,-5.7455,-5.7456,-5.7611,-5.7614,-5.7616,0,0,0,0,0,0,-5.7379,-5.7387,-5.7447,-5.7416,-5.7423,-5.7417,-5.7437,-5.7435,-5.7445,-5.7442,-5.744,-5.7434,-5.7441,-5.7446,-5.749,-5.7525,-5.7456,-5.7459,-5.7608,-5.7612,-5.7615,-5.7674,0,0,0,0,0,0,-5.7377,-5.7386,-5.7411,-5.7417,-5.7425,-5.7488,-5.7439,-5.7437,-5.7451,-5.7446,-5.7453,-5.7451,-5.7439,-5.7486,-5.7493,-5.7527,-5.7461,-5.7605,-5.761,-5.7614,-5.7669,-5.7679,-5.7688,0,0,0,0,0,-5.7374,-5.7425,-5.7412,-5.742,-5.7455,-5.749,-5.7494,-5.7481,-5.7454,-5.7478,-5.7476,-5.7451,-5.752,-5.7491,-5.7499,-5.7534,-5.7602,-5.7608,-5.7614,-5.7665,-5.7677,-5.7688,0,0,0,0,0,0,-5.742,-5.7425,-5.7411,-5.7466,-5.7478,-5.7482,-5.7512,-5.7494,-5.7513,-5.7507,-5.7488,-5.749,-5.7539,-5.7541,-5.7509,-5.7596,-5.7557,-5.7564,-5.7593,-5.7605,-5.7614,-5.7613,-5.7463,0,0,0,0,0,-5.7437,-5.7466,-5.7469,-5.7517,-5.7524,-5.7518,-5.7532,-5.7521,-5.7532,-5.7537,-5.7538,-5.7549,-5.7573,-5.7589,-5.7611,-5.767,-5.7671,-5.7698,-5.7707,-5.7715,-5.7722,-5.7754,-5.7767,-5.7635,-5.7635,-5.7635,0,0,-5.7471,-5.7478,-5.7497,-5.7526,-5.7535,-5.7565,-5.7522,-5.7555,-5.7577,-5.7541,-5.7584,-5.7586,-5.7597,-5.7649,-5.7672,-5.7652,-5.7759,-5.7722,-5.7729,-5.7731,-5.7761,-5.7774,-5.7785,-5.7639,-5.7638,-5.7637,0,0,-5.755,-5.7558,-5.76,-5.761,-5.7624,-5.7619,-5.763,-5.7637,-5.7638,-5.7681,-5.7655,-5.7681,-5.7723,-5.7732,-5.7742,-5.7828,-5.7806,-5.7836,-5.7885,-5.7917,-5.7928,-5.7937,-5.7968,-5.7979,-5.7842,-5.7842,-5.7842,0,-5.759,-5.7636,-5.7623,-5.7659,-5.7673,-5.7645,-5.7687,-5.7697,-5.7716,-5.7726,-5.7704,-5.7758,-5.7763,-5.7818,-5.784,-5.7848,-5.786,-5.7834,-5.7928,-5.7937,-5.7945,-5.7974,-5.7986,-5.7846,-5.7845,-5.7845,-5.7845,0,-5.7686,-5.7718,-5.775,-5.7773,-5.779,-5.7829,-5.7822,-5.7841,-5.7829,-5.7827,-5.7872,-5.7878,-5.7902,-5.7914,-5.7901,-5.7968,-5.7955,-5.7931,-5.7891,-5.7961,-5.7989,-5.8,-5.7851,-5.785,-5.7849,-5.7848,0,0,-5.7791,-5.7809,-5.7821,-5.7832,-5.7847,-5.7871,-5.7909,-5.7934,-5.7951,-5.7967,-5.7998,-5.8036,-5.8014,-5.8026,-5.8014,-5.8042,-5.8111,-5.8014,-5.8014,-5.8033,-5.8186,-5.8204,-5.8217,-5.8097,-5.8099,-5.8101,-5.8185,0,-5.787,-5.7938,-5.7929,-5.7993,-5.8023,-5.7998,-5.8031,-5.8044,-5.8044,-5.8068,-5.8067,-5.8095,-5.8064,-5.8071,-5.8098,-5.8097,-5.8142,-5.8091,-5.8126,-5.8127,-5.8124,-5.8232,-5.8251,-5.833,-5.8196,-5.8197,-5.8199,0,-5.797,-5.7992,-5.8061,-5.8073,-5.8085,-5.8116,-5.8139,-5.8163,-5.8177,-5.8175,-5.819,-5.8175,-5.8212,-5.8173,-5.8225,-5.819,-5.8204,-5.8207,-5.8209,-5.8212,-5.8167,-5.8237,-5.8354,-5.8366,-5.8215,-5.8214,-5.8213,0,-5.8042,-5.8088,-5.8136,-5.8146,-5.8161,-5.8183,-5.819,-5.8202,-5.8219,-5.8239,-5.8249,-5.8273,-5.8286,-5.8304,-5.8295,-5.8267,-5.8349,-5.8308,-5.8348,-5.8349,-5.8366,-5.8365,-5.8487,-5.8375,-5.8375,-5.8375,-5.8375,0,-5.813,-5.8173,-5.8168,-5.8197,-5.8245,-5.8234,-5.8281,-5.8285,-5.8297,-5.8326,-5.8305,-5.8332,-5.8319,-5.8345,-5.8339,-5.8383,-5.8389,-5.8388,-5.8386,-5.839,-5.839,-5.8398,-5.8393,-5.8378,-5.8377,-5.8377,-5.8376,0,-5.8217,-5.8216,-5.8266,-5.8278,-5.8282,-5.8317,-5.8327,-5.8354,-5.8353,-5.839,-5.8398,-5.8397,-5.8427,-5.8421,-5.8453,-5.8449,-5.8505,-5.8496,-5.8501,-5.8499,-5.8539,-5.8536,-5.8671,-5.8688,-5.8565,-5.8566,-5.8567,0,-5.8274,-5.8307,-5.8324,-5.8343,-5.8353,-5.8383,-5.8401,-5.8392,-5.8411,-5.8431,-5.8456,-5.8485,-5.8508,-5.8557,-5.8558,-5.8584,-5.8575,-5.8621,-5.8578,-5.8582,-5.8576,-5.8574,-5.8578,-5.8629,-5.863,-5.8631,-5.8632,0,-5.8375,-5.8373,-5.8401,-5.8429,-5.8451,-5.8472,-5.849,-5.8507,-5.85,-5.8522,-5.8554,-5.8572,-5.8607,-5.8636,-5.866,-5.8666,-5.8648,-5.8646,-5.8656,-5.8661,-5.8663,-5.8663,-5.8524,-5.8642,-5.8641,-5.8641,-5.864,-5.864,-5.8448,-5.8478,-5.8495,-5.8527,-5.8541,-5.8559,-5.8586,-5.8591,-5.8618,-5.8647,-5.864,-5.8676,-5.8691,-5.8722,-5.8731,-5.8759,-5.8741,-5.8757,-5.8761,-5.8765,-5.877,-5.8659,-5.8763,-5.8763,-5.8762,-5.8762,-5.8762,0,-5.8549,-5.856,-5.8589,-5.8618,-5.8643,-5.8627,-5.8647,-5.8669,-5.8702,-5.8718,-5.8742,-5.8779,-5.8808,-5.8813,-5.884,-5.8862,-5.8854,-5.8869,-5.8867,-5.8869,-5.8783,-5.8772,-5.8875,-5.8875,-5.8875,-5.8875,-5.8875,-5.8875,-5.8604,-5.8653,-5.8654,-5.871,-5.872,-5.8758,-5.8771,-5.8788,-5.8801,-5.8845,-5.887,-5.8874,-5.8885,-5.8914,-5.8939,-5.894,-5.8951,-5.8969,-5.8967,-5.8886,-5.8875,-5.8864,-5.8853,-5.8972,-5.8972,-5.905,-5.9051,-5.9051]}]]